FLOCK 2K-38

Last updated on Wed Feb 14 2018 16:20:52 GMT+0000 (Coordinated Universal Time)

1 42868U 17042AV 18044.72566910 .00007156 00000-0 20819-3 0 9997 2 42868 96.9929 307.5729 0010398 188.9431 171.1630 15.35664085 32683

Satellite not in orbit

FLOCK 2K-38